Weather History for Crockett, TX

Change the Weather History Date:

Tuesday, January 8, 2013

  Actual Average (KLFK) Record (KLFK)
Temperature  
Mean Temperature 51 °F 49 °F  
Max Temperature 60 °F 59 °F 80 °F (1907)
Min Temperature 42 °F 38 °F 15 °F (1976)
Degree Days  
Heating Degree Days 14 17  
Month to date heating degree days 136  
Since 1 July heating degree days 914  
Cooling Degree Days 0 0  
Month to date cooling degree days 0  
Year to date cooling degree days 0  
Growing Degree Days 1 (Base 50)    
Moisture  
Dew Point 51 °F    
Average Humidity 91    
Maximum Humidity 100    
Minimum Humidity 71    
Precipitation  
Precipitation 0.93 in 0.13 in 2.50 in (1930)
Month to date precipitation 1.05  
Year to date precipitation 1.05  
Snow  
Snow 0.00 in - - ()
Month to date snowfall  
Since 1 July snowfall  
Snow Depth -    
Sea Level Pressure  
Sea Level Pressure 30.06 in    
Wind  
Wind Speed 3 mph (East)    
Max Wind Speed 10 mph    
Max Gust Speed -    
Visibility 7 miles    
Events Rain , Thunderstorm    
T = Trace of Precipitation, MM = Missing Value Source: NWS Daily Summary

Daily Weather History Graph

Daily Weather History Graph

Search for Another Location

Airport:

Trip Planner

Search our weather history database for the weather conditions in past years. The results will help you decide how hot, cold, wet, or windy it might be!

Date:

Astronomy

Jan. 08, 2013 Rise Set
Actual Time 7:21 AM CST 5:35 PM CST
Civil Twilight 6:55 AM CST 6:02 PM CST
Nautical Twilight 6:24 AM CST 6:32 PM CST
Astronomical Twilight 5:55 AM CST 7:01 PM CST
Moon 3:56 AM CST (1/8) 2:38 PM CST (1/8)
Length of Visible Light 11h 07m
Length of Day
10h 14m
Waning Crescent, 13% of the Moon is Illuminated
Jan 8
Waning Crescent
Jan 11
New
Jan 18
First Quarter
Jan 26
Full
Feb 3
Last Quarter

Hourly Weather History & Observations

Time (CST) Temp. Windchill Dew Point Humidity Pressure Visibility Wind Dir Wind Speed Gust Speed Precip Events Conditions
12:15 AM 42.8 °F - 39.2 °F 87% 30.15 in 10.0 mi Calm Calm - N/A   Partly Cloudy
12:35 AM 44.6 °F - 39.2 °F 81% 30.15 in 10.0 mi Calm Calm - N/A   Partly Cloudy
12:55 AM 46.4 °F - 39.2 °F 76% 30.14 in 10.0 mi Calm Calm - N/A   Scattered Clouds
1:15 AM 46.4 °F - 39.2 °F 76% 30.13 in 10.0 mi Calm Calm - N/A   Scattered Clouds
1:35 AM 44.6 °F - 39.2 °F 81% 30.14 in 10.0 mi Calm Calm - N/A   Scattered Clouds
1:55 AM 46.4 °F - 39.2 °F 76% 30.13 in 10.0 mi Calm Calm - N/A   Mostly Cloudy
2:15 AM 48.2 °F - 39.2 °F 71% 30.13 in 10.0 mi Calm Calm - N/A   Mostly Cloudy
2:35 AM 48.2 °F - 41.0 °F 76% 30.12 in 7.0 mi Calm Calm - N/A Rain Light Rain
2:55 AM 46.4 °F - 42.8 °F 87% 30.13 in 9.0 mi Calm Calm - N/A   Overcast
3:15 AM 46.4 °F - 42.8 °F 87% 30.12 in 10.0 mi Calm Calm - N/A   Overcast
3:35 AM 46.4 °F 44.3 °F 42.8 °F 87% 30.12 in 10.0 mi ENE 4.6 mph - N/A   Overcast
3:55 AM 46.4 °F 44.3 °F 42.8 °F 87% 30.10 in 10.0 mi ENE 4.6 mph - N/A   Overcast
4:15 AM 46.4 °F - 42.8 °F 87% 30.10 in 10.0 mi Calm Calm - N/A   Overcast
4:35 AM 46.4 °F 45.2 °F 42.8 °F 87% 30.09 in 10.0 mi NE 3.5 mph - N/A   Overcast
4:55 AM 46.4 °F 45.2 °F 42.8 °F 87% 30.09 in 7.0 mi ENE 3.5 mph - 0.01 in   Overcast
5:15 AM 46.4 °F 45.2 °F 44.6 °F 93% 30.08 in 10.0 mi NE 3.5 mph - N/A   Overcast
5:35 AM 46.4 °F 44.3 °F 44.6 °F 93% 30.07 in 10.0 mi NE 4.6 mph - N/A   Overcast
5:55 AM 46.4 °F - 44.6 °F 93% 30.07 in 10.0 mi Calm Calm - N/A   Overcast
6:15 AM 46.4 °F 44.3 °F 44.6 °F 93% 30.08 in 10.0 mi ENE 4.6 mph - N/A   Overcast
6:35 AM 48.2 °F - 44.6 °F 87% 30.08 in 10.0 mi ENE 4.6 mph - N/A   Overcast
6:55 AM 48.2 °F - 44.6 °F 87% 30.09 in 10.0 mi ENE 3.5 mph - N/A   Overcast
7:15 AM 48.2 °F - 44.6 °F 87% 30.09 in 10.0 mi NE 3.5 mph - N/A   Overcast
7:35 AM 48.2 °F - 44.6 °F 87% 30.08 in 7.0 mi ENE 3.5 mph - N/A   Overcast
7:55 AM 48.2 °F - 46.4 °F 93% 30.09 in 1.5 mi East 5.8 mph - N/A   Light Drizzle
8:15 AM 48.2 °F - 46.4 °F 93% 30.10 in 5.0 mi Calm Calm - N/A Rain Light Rain
8:35 AM 48.2 °F - 46.4 °F 93% 30.09 in 1.8 mi ENE 5.8 mph - 0.08 in Rain Light Rain
8:55 AM 48.2 °F - 46.4 °F 93% 30.09 in 4.0 mi ENE 6.9 mph - 0.08 in   Light Drizzle
9:15 AM 48.2 °F - 48.2 °F 100% 30.10 in 2.5 mi Calm Calm - 0.01 in Thunderstorm Light Drizzle
9:35 AM 50.0 °F - 48.2 °F 94% 30.09 in 3.0 mi East 8.1 mph - 0.04 in Thunderstorm Overcast
9:55 AM 51.8 °F - 50.0 °F 94% 30.10 in 1.5 mi East 6.9 mph - 0.07 in Rain Heavy Rain
10:15 AM 51.8 °F - 50.0 °F 94% 30.10 in 3.0 mi Calm Calm - 0.01 in   Overcast
10:35 AM 51.8 °F - 51.8 °F 100% 30.09 in 9.0 mi East 6.9 mph - 0.01 in   Overcast
10:55 AM 53.6 °F - 51.8 °F 94% 30.09 in 8.0 mi East 3.5 mph - 0.01 in   Overcast
11:15 AM 53.6 °F - 53.6 °F 100% 30.08 in 9.0 mi Calm Calm - N/A   Overcast
11:35 AM 55.4 °F - 53.6 °F 94% 30.06 in 9.0 mi East 9.2 mph - N/A   Overcast
11:55 AM 57.2 °F - 55.4 °F 94% 30.05 in 10.0 mi ESE 8.1 mph - N/A   Overcast
12:35 PM 60.8 °F - 57.2 °F 88% 30.01 in 10.0 mi East 8.1 mph - N/A   Overcast
12:55 PM 60.8 °F - 57.2 °F 88% 30.01 in 5.0 mi ESE 4.6 mph - N/A   Light Drizzle
1:15 PM 60.8 °F - 57.2 °F 88% 30.00 in 5.0 mi ESE 4.6 mph - 0.01 in Rain , Thunderstorm Light Thunderstorms and Rain
1:55 PM 59.0 °F - 59.0 °F 100% 30.00 in 5.0 mi ESE 5.8 mph - 0.04 in Rain Light Rain
2:15 PM 59.0 °F - 59.0 °F 100% 30.00 in 3.0 mi Calm Calm - 0.02 in Rain , Thunderstorm Light Rain
2:35 PM 59.0 °F - 57.2 °F 94% 30.01 in 2.5 mi ESE 6.9 mph - 0.04 in Rain , Thunderstorm Light Rain
2:55 PM 59.0 °F - 57.2 °F 94% 30.00 in 2.0 mi ESE 4.6 mph - 0.07 in Rain Light Rain
3:15 PM 59.0 °F - 57.2 °F 94% 30.01 in 2.5 mi East 3.5 mph - N/A Rain Rain
3:35 PM 59.0 °F - 57.2 °F 94% 30.02 in 2.0 mi Calm Calm - 0.03 in Rain , Thunderstorm Rain
3:55 PM 57.2 °F - 57.2 °F 100% 29.98 in 2.0 mi East 6.9 mph - 0.07 in Rain Rain
4:15 PM 57.2 °F - 57.2 °F 100% 30.00 in 3.0 mi SE 5.8 mph - 0.05 in Rain Light Rain
4:35 PM 59.0 °F - 57.2 °F 94% 30.00 in 0.8 mi SE 5.8 mph - 0.36 in Rain Rain
4:55 PM 60.8 °F - 59.0 °F 94% 30.00 in 1.2 mi ESE 8.1 mph - 0.58 in   Light Drizzle
5:15 PM 59.0 °F - 57.2 °F 94% 30.00 in 9.0 mi ESE 8.1 mph - N/A   Mostly Cloudy
5:35 PM 59.0 °F - 57.2 °F 94% 30.00 in 10.0 mi SE 5.8 mph - N/A   Overcast
5:55 PM 60.8 °F - 59.0 °F 94% 30.00 in 10.0 mi East 5.8 mph - N/A   Overcast
6:15 PM 60.8 °F - 57.2 °F 88% 30.00 in 10.0 mi East 9.2 mph - N/A   Overcast
6:35 PM 60.8 °F - 57.2 °F 88% 30.00 in 10.0 mi ENE 9.2 mph - N/A   Overcast
6:55 PM 60.8 °F - 57.2 °F 88% 30.00 in 10.0 mi ENE 9.2 mph - N/A   Overcast
7:15 PM 59.0 °F - 57.2 °F 94% 30.01 in 10.0 mi ENE 9.2 mph - N/A   Overcast
7:55 PM 59.0 °F - 57.2 °F 94% 30.01 in 8.0 mi East 4.6 mph - N/A   Overcast
8:15 PM 59.0 °F - 57.2 °F 94% 30.01 in 3.0 mi East 8.1 mph - N/A   Overcast
8:35 PM 59.0 °F - 57.2 °F 94% 30.02 in 2.0 mi ENE 10.4 mph - N/A   Overcast
8:55 PM 59.0 °F - 57.2 °F 94% 30.03 in 3.0 mi ENE 9.2 mph - N/A   Overcast
9:15 PM 59.0 °F - 57.2 °F 94% 30.03 in 5.0 mi East 9.2 mph - N/A   Overcast
9:35 PM 59.0 °F - 57.2 °F 94% 30.02 in 4.0 mi ENE 6.9 mph - N/A   Overcast
9:55 PM 59.0 °F - 57.2 °F 94% 30.02 in 5.0 mi ENE 8.1 mph - N/A   Overcast
10:15 PM 59.0 °F - 57.2 °F 94% 30.02 in 3.0 mi ENE 6.9 mph - N/A   Overcast
10:35 PM 59.0 °F - 57.2 °F 94% 30.02 in 4.0 mi East 6.9 mph - N/A   Overcast
11:35 PM 59.0 °F - 59.0 °F 100% 30.02 in 1.5 mi ENE 5.8 mph - N/A   Overcast